[[{"header":{"parameterUnit":"m.s-1","parameterCategory":1,"la1":30.2991,"la2":30.254,"lo1":-89.0895,"lo2":-89.0444,"dy":0.0017,"dx":0.0017,"nx":28,"ny":28,"refTime":"2023-10-20T03:00:00:Z","depth":0,"parameterNumber":2,"parameterNumberName":"U-component_of_WINDS"},"data":[0,0,0,0,0,0,0,0,0,0,0,0,0,0,0,0,0,0,0,0,0,0,0,0,0,0,0,0,0,0,0,0,0,0,0,0,0,0,0,0,0,0,0,0,0,0,0,0,0,0,0,0,0,0,0,0,0,0,4.3425,4.3426,0,4.3554,4.3556,4.3557,4.3496,4.3493,4.349,4.3487,4.3621,4.3628,4.3634,0,0,0,0,0,0,0,0,0,0,0,0,0,4.3125,4.3131,4.3425,4.3426,4.3428,4.3554,4.3556,4.3558,4.3497,4.3493,4.3489,4.3485,4.3619,4.3627,4.3635,0,0,0,0,0,0,0,0,0,0,0,0,0,4.3255,4.3133,4.3424,4.3413,4.3413,4.3554,4.3556,4.3558,4.3498,4.3493,4.3488,4.3483,4.3617,4.3626,4.3636,4.3796,0,0,4.3667,4.3671,0,0,0,0,0,0,0,0,4.3248,4.3266,4.3413,4.3414,4.3414,4.3504,4.35,4.3638,4.3499,4.3466,4.3487,4.3481,4.3586,4.3599,4.3634,4.3803,4.3809,4.3667,4.3674,4.3678,4.3681,0,0,0,0,0,0,0,4.3239,4.326,4.3476,4.3415,4.3416,4.3401,4.3414,4.3526,4.3552,4.3468,4.3464,4.348,4.3586,4.3624,4.3637,4.381,4.3667,4.3676,4.3682,4.3686,4.4116,4.4121,0,0,0,0,0,0,4.323,4.3253,4.3472,4.348,4.3317,4.3411,4.3425,4.348,4.3551,4.3557,4.3484,4.3477,4.361,4.3625,4.3641,4.3832,4.3678,4.3687,4.3693,4.4111,4.4117,4.4123,0,0,0,0,0,0,4.3224,4.325,4.3467,4.3366,4.3392,4.3421,4.3483,4.3485,4.3524,4.3563,4.3567,4.3518,4.3606,4.3627,4.3758,4.3836,4.3692,4.3701,4.4104,4.4113,4.412,4.4217,0,0,0,0,0,0,4.3216,4.3248,4.3309,4.3367,4.3398,4.3581,4.3488,4.3491,4.3541,4.3532,4.3596,4.3602,4.3604,4.3743,4.3768,4.3847,4.3708,4.4097,4.4108,4.4118,4.4207,4.4227,4.4245,0,0,0,0,0,4.3205,4.3332,4.3313,4.334,4.3474,4.3586,4.3603,4.3602,4.3547,4.3609,4.3634,4.36,4.3824,4.3757,4.3784,4.3868,4.4092,4.4105,4.4117,4.4198,4.4223,4.4244,0,0,0,0,0,0,4.3284,4.334,4.3319,4.3468,4.3523,4.3575,4.3653,4.3629,4.3701,4.369,4.3686,4.3701,4.3837,4.3865,4.379,4.4026,4.395,4.3968,4.4002,4.4026,4.4045,4.4035,4.3717,0,0,0,0,0,4.3318,4.3404,4.3448,4.3576,4.3604,4.3624,4.3673,4.3667,4.3723,4.3746,4.3781,4.3838,4.392,4.3975,4.4053,4.4211,4.4223,4.4282,4.43,4.4316,4.4332,4.4416,4.4442,4.4163,4.4163,4.4163,0,0,4.3391,4.3432,4.3486,4.3593,4.3634,4.3722,4.3644,4.3741,4.3807,4.3761,4.3886,4.3914,4.3977,4.4121,4.4186,4.4149,4.4411,4.4332,4.4344,4.4351,4.4431,4.4457,4.4481,4.4172,4.417,4.4169,0,0,4.3568,4.3608,4.3718,4.3761,4.3824,4.3837,4.3863,4.392,4.3936,4.4061,4.4028,4.4107,4.425,4.4295,4.4337,4.4531,4.4502,4.4557,4.4656,4.4738,4.476,4.4779,4.4847,4.4872,4.4572,4.4573,4.4573,0,4.3651,4.3782,4.3778,4.3878,4.3925,4.3887,4.3998,4.404,4.4127,4.416,4.4117,4.4295,4.4335,4.4489,4.4536,4.4571,4.4601,4.4549,4.4757,4.4777,4.4795,4.4859,4.4885,4.4579,4.4578,4.4577,4.4577,0,4.388,4.3972,4.4053,4.4136,4.4193,4.4298,4.4309,4.4367,4.4357,4.4374,4.4501,4.4548,4.4634,4.467,4.4662,4.4823,4.4798,4.4757,4.4679,4.4827,4.4888,4.4913,4.4588,4.4585,4.4584,4.4582,0,0,4.411,4.4189,4.4219,4.4255,4.4322,4.4393,4.4496,4.458,4.4629,4.469,4.4776,4.4898,4.4859,4.4907,4.4903,4.4975,4.5124,4.4924,4.4926,4.4959,4.5304,4.5334,4.5363,4.5105,4.511,4.5114,4.5298,0,4.4291,4.4471,4.447,4.4636,4.4721,4.4685,4.4775,4.4826,4.4845,4.4919,4.4939,4.5025,4.4968,4.4997,4.5066,4.5091,4.5193,4.5078,4.5185,4.5189,4.517,4.5395,4.5427,4.5598,4.5322,4.5326,4.5329,0,4.4527,4.4594,4.4768,4.4822,4.4857,4.4938,4.5014,4.5085,4.5142,4.515,4.5203,4.5188,4.5293,4.5213,4.5357,4.5279,4.5322,4.5341,4.5348,4.5357,4.5267,4.5409,4.5653,4.5678,4.5366,4.5363,4.5361,0,4.4676,4.481,4.4931,4.4964,4.503,4.5087,4.5117,4.5169,4.5219,4.5286,4.5318,4.5397,4.544,4.5501,4.5507,4.5449,4.5652,4.5573,4.5661,4.5661,4.5705,4.5702,4.5959,4.5735,4.5735,4.5734,4.5734,0,4.4878,4.4985,4.4999,4.5074,4.5193,4.5191,4.531,4.5335,4.5381,4.546,4.5435,4.5509,4.5513,4.559,4.5596,4.5713,4.5733,4.5743,4.5743,4.5745,4.5743,4.5773,4.576,4.5741,4.574,4.5738,4.5737,0,4.5064,4.5078,4.5207,4.5259,4.5274,4.536,4.5404,4.5475,4.549,4.559,4.5614,4.5639,4.5727,4.574,4.5844,4.5848,4.5989,4.5977,4.5969,4.5967,4.6055,4.6046,4.6338,4.6376,4.6129,4.6131,4.6133,0,4.5191,4.5273,4.5333,4.5384,4.5416,4.5499,4.5549,4.555,4.5604,4.5674,4.5737,4.5823,4.5891,4.6035,4.6062,4.6142,4.6131,4.6228,4.6143,4.6141,4.6131,4.6126,4.6133,4.6244,4.6247,4.6249,4.6251,0,4.5416,4.5418,4.5491,4.5568,4.5629,4.5689,4.5745,4.5788,4.5797,4.5858,4.5948,4.6001,4.6107,4.6193,4.6271,4.6302,4.6278,4.6278,4.6302,4.6304,4.6296,4.63,4.6013,4.6271,4.6269,4.6267,4.6266,4.6265,4.5576,4.5646,4.5699,4.5782,4.5824,4.5877,4.5946,4.597,4.6045,4.613,4.6127,4.6225,4.6279,4.6382,4.6418,4.6495,4.6464,4.6499,4.6508,4.6517,4.6525,4.6284,4.651,4.6509,4.6509,4.6508,4.6508,0,4.5797,4.5829,4.5905,4.5985,4.605,4.6021,4.6082,4.6138,4.6225,4.6277,4.6345,4.6448,4.653,4.6564,4.6645,4.67,4.6691,4.6722,4.6717,4.6724,4.6549,4.6519,4.6727,4.6727,4.6727,4.6727,4.6727,4.6727,4.592,4.6038,4.6046,4.6185,4.6216,4.6312,4.6349,4.6398,4.6439,4.6555,4.6623,4.6644,4.6689,4.6773,4.6847,4.6855,4.6885,4.692,4.6923,4.6759,4.6737,4.6716,4.6687,4.6927,4.6927,4.7092,4.7093,4.7094]},{"header":{"parameterUnit":"m.s-1","parameterCategory":1,"la1":30.2991,"la2":30.254,"lo1":-89.0895,"lo2":-89.0444,"dy":0.0017,"dx":0.0017,"nx":28,"ny":28,"refTime":"2023-10-20T03:00:00:Z","depth":0,"parameterNumber":3,"parameterNumberName":"V-component_of_WINDS"},"data":[0,0,0,0,0,0,0,0,0,0,0,0,0,0,0,0,0,0,0,0,0,0,0,0,0,0,0,0,0,0,0,0,0,0,0,0,0,0,0,0,0,0,0,0,0,0,0,0,0,0,0,0,0,0,0,0,0,0,1.6074,1.6075,0,1.6125,1.6126,1.6126,1.6114,1.6113,1.6112,1.6111,1.6163,1.6165,1.6167,0,0,0,0,0,0,0,0,0,0,0,0,0,1.5964,1.5966,1.6074,1.6075,1.6075,1.6125,1.6126,1.6126,1.6114,1.6113,1.6112,1.6111,1.6162,1.6165,1.6167,0,0,0,0,0,0,0,0,0,0,0,0,0,1.6013,1.5967,1.6074,1.6075,1.6076,1.6125,1.6126,1.6127,1.6114,1.6113,1.6111,1.611,1.6161,1.6164,1.6168,1.6218,0,0,1.6178,1.618,0,0,0,0,0,0,0,0,1.601,1.6017,1.6074,1.6075,1.6076,1.6112,1.6106,1.6157,1.6115,1.61,1.6111,1.6109,1.6147,1.6151,1.6164,1.6221,1.6223,1.6178,1.6181,1.6182,1.6183,0,0,0,0,0,0,0,1.6007,1.6015,1.6094,1.6075,1.6076,1.6073,1.6078,1.6116,1.6131,1.6101,1.61,1.6106,1.6147,1.6161,1.6165,1.6224,1.6178,1.6181,1.6183,1.6185,1.6323,1.6325,0,0,0,0,0,0,1.6003,1.6012,1.6093,1.6096,1.6039,1.6076,1.6082,1.6102,1.613,1.6133,1.6108,1.6106,1.6156,1.6161,1.6167,1.6228,1.6182,1.6185,1.6187,1.6321,1.6323,1.6325,0,0,0,0,0,0,1.6001,1.601,1.6091,1.6054,1.6064,1.6079,1.6102,1.6104,1.6117,1.6136,1.6138,1.6119,1.6155,1.6162,1.6205,1.6229,1.6187,1.619,1.6319,1.6322,1.6324,1.635,0,0,0,0,0,0,1.5998,1.601,1.603,1.6054,1.6066,1.6129,1.6103,1.6106,1.6123,1.6121,1.6147,1.615,1.6154,1.62,1.6209,1.6233,1.6193,1.6317,1.6321,1.6323,1.6347,1.6352,1.6357,0,0,0,0,0,1.5994,1.6035,1.6031,1.6041,1.6091,1.613,1.6137,1.6141,1.6125,1.6145,1.6157,1.6149,1.6225,1.6205,1.6214,1.624,1.6316,1.632,1.6323,1.6344,1.6351,1.6357,0,0,0,0,0,0,1.6013,1.6038,1.6034,1.6084,1.6105,1.6128,1.6154,1.6149,1.6174,1.6171,1.6175,1.6181,1.6225,1.6237,1.6214,1.629,1.6268,1.6274,1.6281,1.6288,1.6293,1.629,1.6195,0,0,0,0,0,1.6023,1.6053,1.6073,1.6116,1.6126,1.6138,1.6155,1.6157,1.6178,1.6187,1.6202,1.6223,1.6251,1.627,1.6297,1.6348,1.6353,1.637,1.6375,1.638,1.6385,1.6411,1.6419,1.6337,1.6337,1.6337,0,0,1.6044,1.6061,1.608,1.612,1.6136,1.6167,1.6146,1.6179,1.6201,1.6192,1.6234,1.6245,1.6269,1.6316,1.6337,1.6327,1.6408,1.6384,1.6388,1.639,1.6416,1.6424,1.643,1.6339,1.6339,1.6339,0,0,1.6098,1.6114,1.6151,1.6168,1.6193,1.62,1.6209,1.6232,1.6239,1.6281,1.6274,1.6301,1.635,1.6367,1.6382,1.644,1.6434,1.6449,1.6478,1.6503,1.651,1.6515,1.6536,1.6543,1.6454,1.6454,1.6454,0,1.6121,1.6167,1.617,1.6204,1.6221,1.6214,1.6251,1.6267,1.6299,1.6311,1.6299,1.636,1.6375,1.6425,1.6439,1.6452,1.6461,1.6446,1.6509,1.6514,1.652,1.6539,1.6547,1.6455,1.6455,1.6455,1.6455,0,1.6193,1.6225,1.6252,1.6283,1.6304,1.6339,1.6347,1.6367,1.6366,1.6374,1.6416,1.6434,1.6464,1.6476,1.6476,1.6526,1.6519,1.6508,1.6486,1.6529,1.6547,1.6555,1.6458,1.6457,1.6457,1.6456,0,0,1.6262,1.6294,1.6304,1.6317,1.6344,1.6368,1.6402,1.6432,1.6448,1.6471,1.6499,1.654,1.6529,1.6546,1.6548,1.657,1.6614,1.6556,1.6557,1.6566,1.667,1.6678,1.6687,1.661,1.6611,1.6613,1.6668,0,1.6318,1.6379,1.6382,1.6437,1.6466,1.6458,1.6488,1.6507,1.6515,1.654,1.6549,1.6578,1.6562,1.6572,1.6594,1.6604,1.6635,1.66,1.6636,1.6637,1.663,1.6696,1.6706,1.6757,1.6675,1.6676,1.6677,0,1.6392,1.6416,1.6474,1.6495,1.6507,1.6534,1.656,1.6585,1.6606,1.661,1.6628,1.6626,1.666,1.6636,1.6683,1.6659,1.6673,1.668,1.6682,1.6686,1.666,1.6702,1.6773,1.6781,1.6688,1.6687,1.6687,0,1.6435,1.6482,1.6523,1.6535,1.656,1.6579,1.6591,1.661,1.6627,1.665,1.6661,1.6688,1.6702,1.6723,1.6727,1.671,1.6773,1.6751,1.6777,1.6777,1.6791,1.679,1.6866,1.6801,1.68,1.68,1.68,0,1.6498,1.6533,1.6543,1.6567,1.6606,1.6609,1.6648,1.6658,1.6675,1.6701,1.6696,1.672,1.6725,1.675,1.6753,1.679,1.6797,1.6801,1.6802,1.6802,1.6801,1.6811,1.6808,1.6802,1.6802,1.6801,1.6801,0,1.6553,1.6561,1.6604,1.6625,1.6631,1.6659,1.6676,1.6699,1.6706,1.6739,1.6747,1.6758,1.6787,1.6793,1.6828,1.683,1.6874,1.6871,1.6867,1.6867,1.6893,1.6891,1.6978,1.699,1.6917,1.6918,1.6918,0,1.6593,1.662,1.6643,1.666,1.6672,1.67,1.6717,1.6721,1.6739,1.6764,1.6784,1.6812,1.6835,1.6882,1.6893,1.6919,1.6916,1.6945,1.692,1.6919,1.6916,1.6914,1.6917,1.695,1.6951,1.6951,1.6952,0,1.6661,1.6664,1.6689,1.6716,1.6736,1.6758,1.6777,1.6792,1.6798,1.6818,1.6848,1.6866,1.69,1.6928,1.6954,1.6965,1.6959,1.6959,1.6967,1.6967,1.6964,1.6966,1.688,1.6958,1.6957,1.6957,1.6956,1.6956,1.671,1.6733,1.6753,1.6781,1.6796,1.6815,1.6837,1.6847,1.6872,1.6901,1.6901,1.6933,1.6952,1.6986,1.6998,1.7023,1.7014,1.7025,1.7027,1.703,1.7032,1.696,1.7027,1.7027,1.7027,1.7027,1.7027,0,1.6778,1.679,1.6816,1.6844,1.6866,1.6858,1.688,1.6898,1.6927,1.6945,1.6967,1.7001,1.7027,1.704,1.7066,1.7083,1.7081,1.709,1.7089,1.7091,1.7039,1.703,1.7091,1.7091,1.7091,1.7091,1.7091,1.7091,1.6816,1.6855,1.6859,1.6905,1.6917,1.6948,1.6961,1.6978,1.6992,1.7029,1.7052,1.706,1.7075,1.7102,1.7126,1.7129,1.7138,1.7148,1.715,1.7101,1.7095,1.7089,1.708,1.7151,1.7151,1.72,1.72,1.7201]}]]